[TLELIST] Archives

 

[list_settings.list_name] Current TLEs

August 18th 2011 PST

HST 1 20580U 90037B 11228.54174769 .00000669 00000-0 37863-4 0 8183 2 20580 028.4721 342.1720 0003387 048.1642 311.9135 15.01456292968737 ISS (ZARYA) 1 25544U 98067A 11230.29066935 .00006021 00000-0 77905-4 0 9145 2 25544 051.6382 208.1676 0013021 089.0427 052.4091 15.60413541730601 CXO 1 25867U 99040B 11229.83333333 -.00000646 00000-0 00000+0 0 6313 2 25867 069.8497 027.4108 8657181 277.0021 002.0592 00.37805671 8003 ____________________________________________________________________ These 2-Line ...Continue Reading

[list_settings.list_name] Current TLEs

August 17th 2011 PST

HST 1 20580U 90037B 11228.54174769 .00000669 00000-0 37863-4 0 8183 2 20580 028.4721 342.1720 0003387 048.1642 311.9135 15.01456292968737 ISS (ZARYA) 1 25544U 98067A 11229.12946068 .00005271 00000-0 69046-4 0 9085 2 25544 051.6389 214.0130 0013013 085.8740 008.1799 15.60395816730429 CXO 1 25867U 99040B 11229.83333333 -.00000646 00000-0 00000+0 0 6313 2 25867 069.8497 027.4108 8657181 277.0021 002.0592 00.37805671 8003 ____________________________________________________________________ These 2-Line ...Continue Reading

[list_settings.list_name] Current TLEs

August 16th 2011 PST

HST 1 20580U 90037B 11225.81642362 .00000777 00000-0 46075-4 0 8173 2 20580 028.4715 359.9730 0003376 017.7874 342.2800 15.01454160968327 ISS (ZARYA) 1 25544U 98067A 11228.43685686 .00004918 00000-0 64863-4 0 9049 2 25544 051.6389 217.4993 0013076 083.2729 077.5423 15.60386248730312 CXO 1 25867U 99040B 11229.83333333 -.00000646 00000-0 00000+0 0 6313 2 25867 069.8497 027.4108 8657181 277.0021 002.0592 00.37805671 8003 ____________________________________________________________________ These 2-Line ...Continue Reading

[list_settings.list_name] Current TLEs

August 15th 2011 PST

HST 1 20580U 90037B 11225.81642362 .00000777 00000-0 46075-4 0 8173 2 20580 028.4715 359.9730 0003376 017.7874 342.2800 15.01454160968327 ISS (ZARYA) 1 25544U 98067A 11227.40977613 .00004643 00000-0 61627-4 0 8969 2 25544 051.6388 222.6671 0013005 079.9237 067.5487 15.60373719730150 CXO 1 25867U 99040B 11227.16666667 -.00000637 00000-0 00000+0 0 6305 2 25867 069.8271 027.6043 8657463 276.9789 359.0763 00.37805000 7993 ____________________________________________________________________ These 2-Line ...Continue Reading

[list_settings.list_name] Current TLEs

August 14th 2011 PST

HST 1 20580U 90037B 11225.81642362 .00000777 00000-0 46075-4 0 8173 2 20580 028.4715 359.9730 0003376 017.7874 342.2800 15.01454160968327 ISS (ZARYA) 1 25544U 98067A 11226.38636426 .00004952 00000-0 65327-4 0 8907 2 25544 051.6401 227.8183 0012921 076.4533 078.3509 15.60364538729992 CXO 1 25867U 99040B 11227.16666667 -.00000637 00000-0 00000+0 0 6305 2 25867 069.8271 027.6043 8657463 276.9789 359.0763 00.37805000 7993 ____________________________________________________________________ These 2-Line ...Continue Reading

[list_settings.list_name] Current TLEs

August 13th 2011 PST

HST 1 20580U 90037B 11224.81935221 .00000843 00000-0 51006-4 0 8164 2 20580 028.4713 006.4859 0003348 006.8350 353.2256 15.01453382968173 ISS (ZARYA) 1 25544U 98067A 11225.36943287 .00005555 00000-0 72534-4 0 8830 2 25544 051.6396 232.9343 0012887 072.8369 125.7644 15.60355603729831 CXO 1 25867U 99040B 11227.16666667 -.00000637 00000-0 00000+0 0 6305 2 25867 069.8271 027.6043 8657463 276.9789 359.0763 00.37805000 7993 ____________________________________________________________________ These 2-Line ...Continue Reading

[list_settings.list_name] Current TLEs

August 12th 2011 PST

HST 1 20580U 90037B 11223.22403858 .00000892 00000-0 54723-4 0 8156 2 20580 028.4708 016.9065 0003409 350.4558 009.6032 15.01451603967939 ISS (ZARYA) 1 25544U 98067A 11224.39017432 .00006249 00000-0 80814-4 0 8770 2 25544 051.6403 237.8615 0012855 070.1066 024.0877 15.60346277729685 CXO 1 25867U 99040B 11213.95833333 -.00000639 00000-0 00000+0 0 6293 2 25867 069.7252 028.4195 8642897 276.9147 001.2242 00.37800570 7941 ____________________________________________________________________ These 2-Line ...Continue Reading

[list_settings.list_name] Current TLEs

August 11th 2011 PST

HST 1 20580U 90037B 11223.22403858 .00000892 00000-0 54723-4 0 8156 2 20580 028.4708 016.9065 0003409 350.4558 009.6032 15.01451603967939 ISS (ZARYA) 1 25544U 98067A 11223.37173066 .00006961 00000-0 89329-4 0 8729 2 25544 051.6405 242.9854 0012838 065.6986 063.8635 15.60335363729520 CXO 1 25867U 99040B 11213.95833333 -.00000639 00000-0 00000+0 0 6293 2 25867 069.7252 028.4195 8642897 276.9147 001.2242 00.37800570 7941 ____________________________________________________________________ These 2-Line ...Continue Reading

[list_settings.list_name] Current TLEs

August 10th 2011 PST

HST 1 20580U 90037B 11221.03047376 .00000821 00000-0 49400-4 0 8149 2 20580 028.4709 031.2361 0003329 325.0165 035.0079 15.01448009967606 ISS (ZARYA) 1 25544U 98067A 11222.07496944 .00008556 00000-0 10839-3 0 8639 2 25544 051.6397 249.5128 0012663 060.4474 340.1361 15.60320724729328 CXO 1 25867U 99040B 11213.95833333 -.00000639 00000-0 00000+0 0 6293 2 25867 069.7252 028.4195 8642897 276.9147 001.2242 00.37800570 7941 ____________________________________________________________________ These 2-Line ...Continue Reading

[list_settings.list_name] Current TLEs

August 9th 2011 PST

HST 1 20580U 90037B 11221.03047376 .00000821 00000-0 49400-4 0 8149 2 20580 028.4709 031.2361 0003329 325.0165 035.0079 15.01448009967606 ISS (ZARYA) 1 25544U 98067A 11221.38541690 .00007249 00000-0 92864-4 0 8593 2 25544 051.6407 252.9820 0012685 058.6235 066.0695 15.60305935729214 CXO 1 25867U 99040B 11213.95833333 -.00000639 00000-0 00000+0 0 6293 2 25867 069.7252 028.4195 8642897 276.9147 001.2242 00.37800570 7941 ____________________________________________________________________ These 2-Line ...Continue Reading
  • This mailing list is a public mailing list - anyone may join or leave, at any time.
  • This mailing list is announce-only.

International Space Station (ISS) / Hubble Space Telescope (HST) / Chandra X-Ray Observatory Orbital Data via EMAIL

Privacy Policy:

Private list